Probability
1 0 0 0 0 0 0 0 0 0 0 0 0 0 0 0 0 0 0 0 0 0 0 0 0 0 0 0 0 0 0 0 0 0 0 0 0 0 0 0 0 0 0
2 1 0 0 0 0 0 0 0 0 0 0 0 0 0 0 0 0 0 0 0 0 0 0 0 0 0 0 0 0 0 0 0 0 0 0 0 0 0 0 0 0 0
4 2 0 0 0 1 0 0 0 0 0 0 0 0 0 0 0 0 0 0 0 0 0 0 0 0 0 0 0 0 0 0 0 0 0 0 0 0 0 0 0 0 0
7 3 1 0 0 0 0 0 0 0 0 0 0 0 0 0 0 0 0 0 0 0 0 0 0 0 0 0 0 0 0 0 0 0 0 0 0 0 0 0 0 0 0
8 5 2 2 2 1 1 1 1 1 1 0 0 0 0 0 0 0 0 0 0 0 0 0 0 0 0 0 0 0 0 0 0 0 0 0 0 0 0 0 0 0 0
12 8 4 4 4 3 3 3 3 3 2 1 0 0 0 1 1 1 0 0 0 0 0 0 0 0 0 0 0 0 0 0 0 0 0 0 0 0 0 0 0 0 0
14 10 7 7 7 6 5 4 4 3 2 1 0 0 0 1 2 1 0 0 0 1 1 1 1 1 1 0 0 0 0 0 0 0 0 0 0 0 0 0 0 0 0
14 11 9 9 10 9 8 8 7 5 3 3 2 0 0 0 1 1 0 0 0 0 1 2 3 3 2 1 1 0 0 0 0 0 0 0 0 0 0 0 0 0 0
18 17 14 13 13 12 11 11 10 7 6 5 4 2 1 1 0 0 0 0 0 0 0 1 3 3 3 2 1 0 0 0 0 0 0 0 0 0 0 0 0 0 0
21 21 21 19 16 14 13 12 10 8 8 8 7 5 4 3 1 1 0 0 0 0 0 1 2 2 3 3 1 0 0 0 0 0 0 0 0 0 0 0 0 0 0
18 20 23 23 20 17 15 13 11 9 9 9 8 7 6 4 3 1 0 0 0 0 1 2 1 1 2 2 1 0 0 0 0 0 0 0 0 0 0 0 0 0 0
14 17 22 26 24 19 16 15 13 10 9 9 9 7 6 4 4 3 2 1 1 1 3 4 4 3 2 2 1 0 0 0 0 0 0 0 0 0 0 0 1 1 1
16 19 23 27 27 22 18 16 14 11 9 8 8 7 6 5 5 5 5 3 2 2 3 6 7 6 5 3 1 1 1 1 0 0 0 0 0 0 0 0 1 2 2
16 20 25 27 27 23 18 16 14 12 10 8 7 7 7 7 7 7 7 5 3 1 2 5 9 11 9 5 2 2 2 1 0 0 0 0 0 0 0 0 0 1 1
13 17 24 27 25 21 20 17 14 12 12 9 7 7 8 8 8 8 8 6 4 2 1 2 8 14 13 7 2 2 2 1 0 0 0 0 0 0 0 0 0 0 0
12 14 20 23 21 19 20 18 15 12 11 9 7 8 8 8 10 12 10 9 7 3 1 3 9 16 15 8 3 3 2 1 0 0 0 0 0 0 0 0 0 0 0
14 16 18 18 17 15 15 15 13 10 9 9 7 7 7 9 13 15 14 12 9 5 3 4 10 15 13 8 5 3 1 0 0 0 0 0 0 0 0 0 0 0 0
14 15 15 15 13 11 12 12 9 7 8 9 9 9 8 9 13 15 14 11 9 7 6 5 8 11 10 6 3 1 0 0 0 0 0 0 0 0 0 0 0 0 0
13 12 12 13 11 9 10 10 8 6 7 9 11 12 11 10 11 11 9 8 7 7 6 4 5 6 7 4 2 1 1 1 0 0 0 0 0 0 0 0 0 0 0
14 14 14 14 13 10 9 10 10 8 7 9 11 13 11 9 8 7 6 6 5 6 5 4 3 4 5 4 3 2 2 1 0 0 0 0 0 0 0 0 0 0 0
16 17 17 16 14 10 7 9 11 10 10 11 11 10 8 6 5 5 5 4 4 4 4 3 2 3 3 3 3 3 2 1 0 0 0 0 0 0 0 0 0 0 0
17 17 17 15 13 9 6 6 10 12 13 14 12 8 5 4 4 4 3 2 1 1 2 2 2 1 2 3 3 3 1 0 0 0 0 0 0 0 0 0 0 0 0
16 17 16 15 14 10 5 3 6 12 16 16 12 7 4 3 3 3 3 1 0 0 1 2 2 2 2 2 2 2 1 0 0 0 0 0 0 0 0 0 0 0 0
16 17 17 17 16 12 6 2 4 10 15 15 11 8 6 4 3 3 3 2 1 0 0 1 2 2 2 1 1 1 0 0 0 0 0 0 0 0 0 0 0 0 0
17 17 17 17 17 13 6 2 3 9 13 12 9 7 6 5 4 3 3 3 2 1 0 0 1 1 1 0 0 0 0 0 0 0 0 0 0 0 0 0 0 0 0
18 16 15 16 17 13 6 2 3 8 11 9 7 6 6 6 4 3 3 3 2 1 0 0 0 0 0 0 0 0 0 0 0 0 0 0 0 0 0 0 0 0 0
Wind_Speed
3 4 3 3 4 3 4 3 2 3 3 2 2 3 3 3 5 6 6 12 11 9 9 9 9 9 9 9 8 8 8 8 7 7 6 6 5 5 5 5 4 4 3
4 3 3 2 2 3 3 3 3 3 2 2 2 3 3 3 5 7 7 8 10 9 9 9 9 9 9 8 8 8 8 8 8 7 6 6 5 5 5 4 4 4 4
5 3 3 3 3 3 3 2 3 3 3 4 3 3 2 2 4 6 7 6 6 8 9 9 9 9 9 8 8 8 7 7 7 7 6 6 5 5 4 5 5 4 4
5 3 3 3 3 3 3 2 2 3 2 2 3 2 3 3 3 4 5 6 6 7 8 10 10 9 9 9 9 9 8 8 7 7 7 7 6 6 6 6 6 5 5
6 3 2 3 3 3 3 4 2 2 2 2 3 3 2 3 3 4 4 6 6 6 6 9 11 10 11 11 11 10 10 10 9 9 9 8 8 7 7 7 7 6 6
6 4 3 4 3 2 2 2 3 2 1 1 2 3 3 4 4 3 4 5 6 7 7 8 7 8 12 12 11 11 11 11 10 10 10 10 9 9 8 8 8 7 7
6 3 2 4 2 2 3 3 3 3 1 1 1 1 1 3 4 4 3 3 5 5 6 8 7 6 6 12 12 11 12 12 11 10 10 10 10 9 9 9 9 9 9
5 6 3 3 3 2 2 2 2 1 2 2 2 1 0 1 1 4 4 4 4 4 6 9 7 7 6 5 8 13 12 11 11 11 10 10 9 9 9 9 9 9 10
5 4 5 3 3 3 3 3 3 3 1 1 2 2 1 1 2 1 4 3 3 3 4 5 7 7 7 5 6 10 12 11 11 11 10 10 10 10 9 9 10 10 11
5 4 5 4 3 2 4 4 4 3 2 2 1 2 2 2 1 1 1 2 4 4 3 4 5 5 5 4 5 8 11 10 9 9 9 8 8 9 9 10 11 11 11
5 5 5 4 3 3 4 3 3 2 2 2 2 1 2 2 3 2 2 2 1 3 3 3 3 3 4 4 4 5 8 7 6 6 5 5 6 6 7 8 9 9 9
5 6 6 4 4 3 4 3 3 3 2 1 1 1 1 2 2 2 2 3 2 2 2 2 3 4 4 4 4 7 8 6 5 3 2 2 2 3 3 4 5 6 6
5 6 6 5 4 3 4 3 3 2 3 3 2 2 1 1 0 0 1 2 2 1 2 2 2 3 4 5 5 8 7 6 5 4 3 2 1 1 1 2 3 3 4
4 6 6 5 5 5 5 4 3 4 3 3 3 1 2 1 1 1 1 1 1 1 1 1 2 3 4 5 6 7 5 7 6 5 4 4 4 3 3 3 4 4 4
5 6 6 6 6 5 4 4 3 3 3 3 2 2 1 1 1 1 1 1 1 1 1 1 2 4 4 5 5 5 5 7 8 7 6 6 6 5 5 5 6 6 6
5 6 6 6 6 5 4 3 2 3 3 2 1 1 1 2 2 2 2 2 2 1 1 2 3 3 4 5 6 5 6 9 8 7 7 7 6 6 6 6 7 7 7
5 5 5 5 5 4 4 3 2 3 3 2 2 2 2 2 3 3 3 3 3 2 2 2 3 4 5 5 4 2 4 4 4 6 6 6 5 5 5 6 6 7 8
5 5 4 4 4 4 4 4 3 3 3 3 2 3 3 2 3 4 3 3 3 3 3 3 3 3 4 3 2 2 2 4 3 6 6 6 5 5 5 6 7 7 8
4 4 4 5 4 4 4 4 3 4 4 4 4 4 4 4 4 4 5 4 3 4 3 3 3 3 3 3 3 3 4 3 2 5 5 4 4 4 4 6 7 7 7
5 4 4 4 4 4 4 5 5 6 6 7 7 7 6 6 5 4 4 4 4 4 3 3 3 3 3 3 3 3 3 3 3 3 3 2 1 3 4 6 7 6 5
5 4 4 4 4 4 5 7 8 8 8 9 9 9 11 13 14 9 7 6 5 4 4 4 4 4 4 4 4 3 3 3 3 3 2 2 1 1 1 5 6 5 3
5 5 5 5 5 4 8 11 10 9 9 9 9 8 9 11 14 16 17 15 11 7 5 4 5 5 5 4 4 4 3 3 2 3 3 3 2 2 0 1 5 4 3
6 7 6 7 7 8 12 13 13 9 9 8 7 6 7 8 8 8 11 13 14 15 11 7 7 5 4 4 4 4 3 3 2 2 2 3 3 3 3 2 5 5 5
6 6 7 7 8 9 13 15 15 10 9 8 7 7 7 6 5 5 8 8 8 8 8 7 6 5 5 3 3 3 3 3 2 3 4 3 3 3 4 1 4 4 5
6 7 8 8 9 9 11 12 12 9 9 9 8 8 7 7 8 7 7 7 7 5 8 9 8 6 5 4 4 4 5 4 3 3 4 4 4 4 4 2 2 4 7
7 8 8 8 9 8 9 11 10 8 9 8 8 8 11 9 10 9 6 6 6 4 3 4 3 2 2 1 3 3 4 5 4 3 5 4 4 5 4 3 4 4 5
Wind_Direction
152 137 145 160 162 154 165 170 180 142 134 138 143 133 100 89 118 124 134 147 148 151 154 156 159 161 160 161 158 158 160 159 156 159 162 162 163 169 168 166 163 165 165
131 135 144 147 146 157 153 157 156 138 156 146 146 137 140 136 119 127 141 151 158 161 164 168 169 169 170 169 170 172 174 173 171 173 174 175 178 182 183 183 187 186 186
137 147 146 169 162 143 135 153 153 160 172 158 155 152 147 137 134 137 145 156 163 172 175 176 177 178 180 179 182 182 182 183 182 182 182 184 189 194 199 202 204 204 204
147 159 163 172 157 154 164 160 183 167 158 151 155 175 157 143 145 153 160 163 164 172 181 186 183 185 189 192 192 189 191 192 192 191 192 195 199 203 209 214 219 218 215
157 173 160 139 167 171 174 175 157 154 153 160 174 174 169 161 163 184 174 169 167 168 170 184 189 191 198 200 202 201 200 201 202 202 204 208 210 212 216 220 224 226 224
161 180 168 157 186 170 156 108 120 117 120 175 212 170 183 171 176 183 188 176 169 179 174 173 182 199 206 207 209 209 209 209 210 213 214 216 219 219 221 225 226 230 233
159 184 175 152 199 160 155 150 148 154 188 179 156 181 212 190 179 178 196 183 179 178 170 170 182 185 196 211 212 212 214 215 215 216 218 221 224 225 225 226 227 232 235
163 181 178 177 171 147 157 152 135 153 202 183 172 150 241 274 226 197 181 187 184 172 179 183 184 177 187 183 203 209 213 215 217 217 219 224 227 229 229 228 231 234 237
181 185 166 194 164 172 162 179 168 182 205 208 189 160 171 189 214 229 194 180 171 176 189 179 183 184 186 172 179 203 211 214 220 222 223 224 227 230 231 232 234 236 237
182 175 175 180 176 176 156 193 185 184 197 218 209 208 197 149 161 197 245 183 177 180 201 190 182 175 173 161 162 176 198 206 215 225 230 230 230 232 233 236 240 242 241
192 183 177 175 182 187 169 186 150 185 209 216 210 202 210 190 203 177 194 201 189 184 184 175 154 155 154 145 150 153 168 183 198 218 231 239 239 240 240 244 249 251 250
196 191 180 177 187 193 165 170 167 192 213 255 295 280 233 212 217 183 166 180 183 197 163 146 143 141 135 120 127 129 142 155 163 172 189 231 248 254 261 265 266 266 265
189 188 184 175 189 179 166 170 172 200 196 201 237 272 283 265 300 113 139 170 150 167 137 130 129 124 118 108 106 112 120 128 129 129 123 107 76 29 344 324 310 303 303
187 172 171 176 191 183 184 174 182 195 186 190 217 238 304 321 352 16 85 121 142 167 135 130 95 96 96 102 112 111 111 115 111 104 92 78 64 49 36 26 17 9 2
182 178 175 179 187 185 180 168 198 189 160 184 208 198 248 290 309 16 28 91 135 168 189 80 68 66 87 93 107 107 102 108 105 98 90 80 70 61 54 46 39 35 28
187 178 177 174 178 171 172 174 189 169 166 176 177 150 124 339 7 29 17 37 60 93 105 73 74 65 65 91 86 91 100 109 110 107 98 89 80 70 61 54 49 44 36
177 174 173 169 166 164 168 168 183 163 166 166 188 128 102 43 30 24 29 41 42 59 93 87 75 68 65 68 74 90 129 119 115 119 115 109 101 88 75 68 64 57 48
173 165 159 162 167 165 163 159 176 151 133 128 114 97 95 90 68 36 34 44 46 58 91 107 98 80 65 60 50 32 70 95 110 127 131 124 115 107 98 87 78 69 59
162 162 162 161 162 159 154 150 146 120 115 109 100 90 80 77 68 56 46 37 29 50 68 97 98 82 67 42 28 28 43 45 71 124 130 129 133 131 123 112 95 82 71
154 156 150 150 151 151 142 134 124 107 98 86 82 79 70 68 64 59 60 46 40 42 63 82 88 81 63 37 40 16 31 20 20 45 41 46 110 138 130 132 116 102 87
149 142 132 126 130 141 141 128 120 116 106 96 86 80 76 76 70 64 65 53 49 50 57 69 74 70 52 37 21 356 26 13 8 31 14 344 14 63 123 145 132 124 119
124 117 113 113 111 119 119 121 121 114 111 109 103 97 91 83 82 79 74 67 61 63 56 63 70 72 57 35 12 6 17 1 350 1 354 335 360 10 24 110 150 169 186
115 110 109 108 106 102 106 109 112 111 107 106 107 106 100 96 92 93 86 76 64 59 61 75 75 67 64 30 10 4 8 348 318 317 349 338 0 2 355 76 176 209 226
115 115 111 111 107 104 106 106 106 103 100 96 94 95 95 86 80 95 97 86 72 57 63 74 78 70 69 30 6 346 334 323 319 15 24 354 353 345 339 310 241 232 250
121 118 118 117 114 108 108 112 112 106 100 91 84 81 89 84 65 88 103 102 98 89 77 89 97 99 82 43 16 9 3 356 4 30 23 1 346 336 321 322 342 310 296
118 115 110 108 111 112 110 113 114 113 110 104 93 80 73 78 67 72 90 95 92 82 92 115 122 142 149 110 51 38 20 7 359 12 22 2 349 346 327 337 346 325 317